Location: Unspecified
(0.0000°N, 0.0000°E)
Time: 15:24:28
(UTC+02:00)

Cosmos 1892 Rocket - Visible Passes

Search period start: 23 May 2015 00:00
Search period end: 02 June 2015 00:00
Orbit: 606 x 635 km, 82.5° (Epoch: 22 May)

Date Brightness Start Highest point End Pass type
(mag) Time Alt. Az. Time Alt. Az. Time Alt. Az.
23 May 3.7 20:33:12 10° S 20:37:25 49° E 20:41:37 10° NNE visible
24 May 3.9 20:50:54 10° S 20:55:14 67° W 20:59:30 10° N visible
25 May 5.7 21:09:18 10° SW 21:13:03 27° W 21:16:42 10° NNW visible
26 May 6.8 21:29:10 10° WSW 21:30:58 12° W 21:32:26 10° WNW visible
28 May 4.3 20:24:31 10° SSW 20:28:48 57° W 20:33:01 10° N visible
29 May 6.1 20:43:05 10° SW 20:46:38 24° W 20:50:04 10° NNW visible
30 May 6.6 07:14:35 10° NE 07:17:40 19° E 07:20:56 10° SE visible
30 May 7.2 21:03:54 10° W 21:04:33 10° W 21:04:49 10° W visible
31 May 5.1 07:31:19 10° NNE 07:35:32 43° E 07:39:49 10° SSE visible
